Regional Weather Roundup
Issued by NWS

Home | Current Version | Previous Version | Graphics & Text | Print | Product List | Glossary Off
Versions: 1 2 3 4 5 6 7 8 9 10 11 12 13 14 15 16 17 18 19 20 21 22 23 24 25 26 27 28 29 30 31 32 33 34 35 36 37 38 39 40 41 42 43 44 45 46 47 48

000
ASUS43 KDMX 021507
RWRIA

WEATHER ROUNDUP FOR IOWA
NATIONAL WEATHER SERVICE DES MOINES IA
1000 AM CDT THU JUL 02 2015

NOTE: "FAIR" INDICATES FEW OR NO CLOUDS BELOW 12,000 FEET WITH NO
SIGNIFICANT WEATHER AND/OR OBSTRUCTIONS TO VISIBILITY.

* - THESE STATIONS ARE NOT NWS STATIONS...THUS NOT UNDER NWS
QUALITY CONTROL.  THEY ALSO DO NOT REPORT WEATHER SUCH
AS PRECIPITATION OR FOG.

IAZ001>003-012>014-020>022-031>034-043>046-021600-
   NORTHWEST IOWA

CITY           SKY/WX    TMP DP  RH WIND       PRES   REMARKS
CARROLL *      SUNNY     61  57  88 E10       30.00S
CHEROKEE *     CLOUDY    63  57  82 SE7       30.01R
DENISON *      SUNNY     63  57  82 E7        29.98R
LE MARS *      SUNNY     63  57  82 E8        29.99F
ORANGE CITY *  SUNNY     63  55  77 SE6       29.99S
SHELDON *      SUNNY     64  61  88 E10       29.98F
SIOUX CITY     CLOUDY    63  57  81 SE6       29.97S
SPENCER        CLOUDY    64  52  64 E9        30.01S
STORM LAKE *   SUNNY     61  55  82 SE12      30.02R
$$

IAZ055>058-069>071-079>083-090>094-021600-
   SOUTHWEST IOWA

CITY           SKY/WX    TMP DP  RH WIND       PRES   REMARKS
ATLANTIC *     CLOUDY    64  59  82 E8        29.99R
AUDUBON *      SUNNY     64  59  82 E7        30.00S
CLARINDA *     CLOUDY    68  63  83 VRB7      29.98S
COUNCIL BLFS * PTSUNNY   64  61  88 E9        29.97S FOG
CRESTON *      CLOUDY    64  59  82 E12       29.98F
HARLAN  *      PTSUNNY   64  64 100 E12       30.01F
LAMONI         CLOUDY    67  61  81 NE10      29.98R
RED OAK *      CLOUDY    66  63  88 E7        29.97F
SHENANDOAH *   CLOUDY    68  64  88 E7        29.96F
$$

IAZ047>049-059>061-072>074-084-021600-
   CENTRAL IOWA

CITY           SKY/WX    TMP DP  RH WIND       PRES   REMARKS
AMES           CLOUDY    62  56  80 E8        30.02R
ANKENY *       SUNNY     63  57  82 E8        30.01S
CHARITON *     SUNNY     64  59  82 E10       30.00R
DES MOINES     CLOUDY    65  57  75 E9        30.00R
GRINNELL*      CLOUDY    63  50  63 E8        30.03R
KNOXVILLE *    SUNNY     64  55  72 E7G14     29.99S
MARSHALLTOWN   CLOUDY    64  54  69 E9        30.02R
PELLA *        CLOUDY    64  55  72 E7        30.02R
PERRY *          N/A     63  57  82 E10       30.00S
$$

IAZ004>006-015-016-023>025-035-036-021600-
   NORTH CENTRAL IOWA

CITY           SKY/WX    TMP DP  RH WIND       PRES   REMARKS
ALGONA *       SUNNY     63  55  77 E10       30.03S
CLARION *      SUNNY     64  55  72 E8        30.03S
ESTHERVILLE    CLOUDY    62  53  72 SE8       30.03R
FORT DODGE *   CLOUDY    63  55  77 E9        30.02S
MASON CITY     PTSUNNY   64  57  78 SE8       30.06R
FOREST CITY *  SUNNY     63  55  77 E7        30.04S
IOWA FALLS *     N/A     64  55  72 E9        30.04S
$$

IAZ007>011-017>019-026>030-037>042-050>054-066-021600-
   NORTHEAST IOWA

CITY           SKY/WX    TMP DP  RH WIND       PRES   REMARKS
CEDAR RAPIDS   PTSUNNY   64  51  62 E13       30.02S
CHARLES CITY * SUNNY     64  59  82 SE7       30.06R
CLINTON *      MOSUNNY   63  52  67 NE12      30.05S
DECORAH *        N/A    N/A N/A N/A MISG        N/A
DUBUQUE        SUNNY     64  47  53 E13       30.04S
MONTICELLO *   SUNNY     64 N/A N/A NE8       30.03F
OELWEIN *      SUNNY     64  55  72 E8        30.05S
WATERLOO       MOSUNNY   64  54  69 E10       30.03S
$$

IAZ064-065-067-068-078-021600-
   EAST CENTRAL IOWA

CITY           SKY/WX    TMP DP  RH WIND       PRES   REMARKS
DAVENPORT      PTSUNNY   63  51  65 NE13      30.02S
IOWA CITY        N/A     65  51  60 NE10      30.02S
MT. PLEASANT * PTSUNNY   66  52  59 NE9       30.00S
MUSCATINE *    SUNNY     64  50  59 NE12      30.01S
QUAD CITIES    PTSUNNY   64  53  67 NE10      30.01R
$$

IAZ062-063-075>077-085>089-095>099-021600-
   SOUTHEAST IOWA

CITY           SKY/WX    TMP DP  RH WIND       PRES   REMARKS
BURLINGTON     PTSUNNY   64  56  75 NE8       29.99R
FAIRFIELD *    SUNNY     64  54  68 E10       30.00F
FORT MADISON * SUNNY     63  57  82 NE8       29.99R
KEOKUK *       SUNNY     66  57  72 NE8G15    29.97R
OSKALOOSA *      N/A     63  54  72 E5        30.02R
CENTERVILLE *  SUNNY     66  57  72 NE9       30.00R
OTTUMWA        PTSUNNY   64  54  69 E12       29.99R
WASHINGTON *   SUNNY     63  50  63 E12G18    30.02S
$$

ABBREVIATIONS USED IN REMARKS
   TC - TEMPERATURES IN CELSIUS
  WCI - WIND CHILL INDEX
   HX - HEAT INDEX
  VSB - VISIBILITY
$$




USA.gov is the U.S. government's official web portal to all federal, state and local government web resources and services.